[[{"header":{"parameterUnit":"m.s-1","parameterCategory":2,"la1":30.2991,"la2":30.254,"lo1":-89.0895,"lo2":-89.0444,"dy":0.0017,"dx":0.0017,"nx":28,"ny":28,"refTime":"2025-04-20T03:00:00:Z","depth":"0","parameterNumber":2,"parameterNumberName":"U-component_of_CURRENTS"},"data":[0,0,0,0,0,0,0,0,0,0,0,0,0,0,0,0,0,0,0,0,0,0,0,0,0,0,0,0,0,0,0,0,0,0,0,0,0,0,0,0,0,0,0,0,0,0,0,0,0,0,0,0,0,0,0,0,0,0,0.1652,0.1652,0,0.1659,0.1659,0.1659,0.1636,0.1635,0.1635,0.1634,0.161,0.161,0.161,0,0,0,0,0,0,0,0,0,0,0,0,0,0.1621,0.1622,0.1652,0.1652,0.1652,0.1659,0.1659,0.1659,0.1636,0.1635,0.1634,0.1634,0.161,0.161,0.161,0,0,0,0,0,0,0,0,0,0,0,0,0,0.1631,0.1622,0.1652,0.1643,0.1642,0.1659,0.1659,0.1659,0.1636,0.1635,0.1634,0.1633,0.161,0.161,0.161,0.1625,0,0,0.1609,0.1609,0,0,0,0,0,0,0,0,0.163,0.1631,0.1644,0.1643,0.1643,0.1647,0.164,0.1647,0.1636,0.1636,0.1634,0.1633,0.1621,0.162,0.1621,0.1624,0.1623,0.1609,0.1609,0.1609,0.1609,0,0,0,0,0,0,0,0.1629,0.1631,0.1653,0.1644,0.1644,0.164,0.164,0.1641,0.1631,0.1636,0.1635,0.1639,0.1621,0.1622,0.1621,0.1623,0.1609,0.1609,0.1609,0.1609,0.1653,0.1654,0,0,0,0,0,0,0.1633,0.1631,0.1653,0.1653,0.1636,0.1641,0.1641,0.1645,0.1632,0.163,0.164,0.1638,0.1622,0.1621,0.162,0.1649,0.1609,0.1609,0.1609,0.1651,0.1653,0.1654,0,0,0,0,0,0,0.1632,0.1635,0.1652,0.1643,0.1646,0.1643,0.1647,0.1646,0.165,0.1635,0.1632,0.1645,0.1622,0.162,0.1627,0.1647,0.1609,0.1609,0.165,0.1652,0.1653,0.1699,0,0,0,0,0,0,0.1631,0.1635,0.1642,0.1644,0.1646,0.167,0.1648,0.1647,0.1654,0.1652,0.164,0.1636,0.1621,0.1628,0.1627,0.1646,0.1609,0.1648,0.1651,0.1653,0.1696,0.1702,0.1708,0,0,0,0,0,0.163,0.1643,0.1642,0.1645,0.1655,0.1671,0.1672,0.1666,0.1655,0.1664,0.1655,0.1637,0.1643,0.1629,0.1628,0.1647,0.1647,0.165,0.1653,0.1693,0.1701,0.1708,0,0,0,0,0,0,0.1631,0.1643,0.1641,0.1656,0.1666,0.1667,0.1677,0.1673,0.1674,0.167,0.1651,0.1648,0.1662,0.1652,0.1638,0.1668,0.1643,0.1646,0.1674,0.1682,0.1687,0.1688,0.1608,0,0,0,0,0,0.1637,0.165,0.1659,0.1672,0.1679,0.168,0.1687,0.1684,0.1684,0.1684,0.1675,0.167,0.1675,0.1675,0.1675,0.1692,0.1701,0.1705,0.1711,0.1716,0.1717,0.1756,0.1765,0.1664,0.1664,0.1663,0,0,0.1639,0.1649,0.1654,0.1673,0.168,0.1693,0.1682,0.1697,0.1705,0.1682,0.1691,0.169,0.1684,0.1701,0.1707,0.1694,0.1754,0.172,0.1724,0.1722,0.176,0.177,0.1779,0.1665,0.1665,0.1665,0,0,0.1649,0.1662,0.1674,0.1687,0.1705,0.1709,0.1716,0.1723,0.1727,0.1739,0.1728,0.1741,0.174,0.1745,0.1746,0.1787,0.1784,0.1789,0.1817,0.1855,0.1864,0.1871,0.191,0.1921,0.1791,0.1791,0.1791,0,0.1649,0.1664,0.168,0.1697,0.1707,0.1717,0.1729,0.1742,0.1749,0.176,0.1747,0.1768,0.1762,0.1791,0.1802,0.18,0.1821,0.1789,0.1863,0.1871,0.1878,0.1915,0.1926,0.1794,0.1793,0.1793,0.1793,0,0.1665,0.1679,0.1691,0.1712,0.1729,0.1744,0.1763,0.1781,0.1785,0.1794,0.1825,0.1824,0.1837,0.1843,0.1831,0.1882,0.1881,0.1866,0.1844,0.1891,0.1927,0.1938,0.1797,0.1796,0.1796,0.1795,0,0,0.1648,0.1691,0.1693,0.1704,0.1736,0.1749,0.178,0.1809,0.1831,0.1848,0.1878,0.1893,0.19,0.1902,0.1902,0.1931,0.2,0.1921,0.1922,0.1957,0.2093,0.2101,0.2113,0.2001,0.2002,0.2004,0.2103,0,0.1649,0.1677,0.1701,0.1724,0.1737,0.1767,0.1796,0.1828,0.1852,0.1889,0.1912,0.1939,0.1922,0.1935,0.1965,0.1991,0.2029,0.1975,0.2043,0.2045,0.2045,0.2126,0.2097,0.2184,0.2114,0.2115,0.2117,0,0.1645,0.1667,0.1688,0.173,0.174,0.1758,0.1806,0.1834,0.1897,0.1921,0.1962,0.1981,0.2035,0.2009,0.2089,0.2057,0.208,0.2097,0.2101,0.2098,0.2074,0.2124,0.2206,0.2173,0.2133,0.2132,0.2131,0,0.161,0.1652,0.1667,0.168,0.1733,0.1752,0.1781,0.184,0.1871,0.1944,0.1981,0.2042,0.2079,0.2121,0.2161,0.2133,0.2249,0.2213,0.2245,0.2246,0.2229,0.2225,0.2284,0.2274,0.2274,0.2274,0.2273,0,0.1591,0.16,0.1652,0.1658,0.1683,0.1731,0.1764,0.1809,0.1881,0.1928,0.1993,0.2046,0.211,0.2178,0.2199,0.2271,0.2286,0.2273,0.2281,0.2245,0.2242,0.2216,0.2181,0.2277,0.2276,0.2276,0.2275,0,0.154,0.1575,0.159,0.1646,0.1662,0.1676,0.1739,0.1773,0.1852,0.1919,0.195,0.2069,0.2173,0.2237,0.2321,0.2328,0.2336,0.2399,0.2356,0.2357,0.234,0.2309,0.2268,0.2185,0.2457,0.2458,0.2459,0,0.1513,0.1518,0.1563,0.1574,0.1594,0.1627,0.1656,0.1739,0.1783,0.1928,0.1965,0.21,0.2195,0.2346,0.2399,0.2476,0.2377,0.2469,0.2404,0.2361,0.2333,0.2208,0.2129,0.2407,0.2407,0.2407,0.2408,0,0.1462,0.1478,0.1496,0.1519,0.1543,0.1566,0.1619,0.1651,0.1763,0.1842,0.1967,0.2063,0.225,0.2345,0.2461,0.2488,0.237,0.2475,0.2445,0.2321,0.2174,0.209,0.2317,0.241,0.241,0.2409,0.2409,0.2409,0.1418,0.1417,0.1446,0.146,0.1486,0.1506,0.1508,0.1586,0.1654,0.1769,0.1905,0.204,0.2257,0.2435,0.2444,0.2478,0.2394,0.2434,0.241,0.2294,0.2179,0.2415,0.2501,0.2502,0.2502,0.2502,0.2502,0,0.1361,0.1374,0.1389,0.1404,0.1405,0.1438,0.1484,0.1489,0.1545,0.1699,0.1809,0.2057,0.2213,0.2357,0.25,0.2441,0.2288,0.2376,0.22,0.2129,0.238,0.2345,0.2383,0.2383,0.2383,0.2383,0.2383,0.2383,0.1335,0.1327,0.1336,0.1318,0.1329,0.1309,0.1316,0.1346,0.1436,0.1582,0.1731,0.1886,0.2221,0.2479,0.251,0.2429,0.2204,0.2137,0.2061,0.2273,0.2275,0.2278,0.2238,0.2253,0.2252,0.1734,0.173,0.1728]},{"header":{"parameterUnit":"m.s-1","parameterCategory":2,"la1":30.2991,"la2":30.254,"lo1":-89.0895,"lo2":-89.0444,"dy":0.0017,"dx":0.0017,"nx":28,"ny":28,"refTime":"2025-04-20T03:00:00:Z","depth":"0","parameterNumber":3,"parameterNumberName":"V-component_of_CURRENTS"},"data":[0,0,0,0,0,0,0,0,0,0,0,0,0,0,0,0,0,0,0,0,0,0,0,0,0,0,0,0,0,0,0,0,0,0,0,0,0,0,0,0,0,0,0,0,0,0,0,0,0,0,0,0,0,0,0,0,0,0,-0.0076,-0.0076,0,-0.0144,-0.0145,-0.0146,-0.0187,-0.0187,-0.0187,-0.0187,-0.0292,-0.0295,-0.0297,0,0,0,0,0,0,0,0,0,0,0,0,0,-0.0024,-0.0024,-0.0076,-0.0076,-0.0077,-0.0144,-0.0145,-0.0146,-0.0187,-0.0187,-0.0187,-0.0187,-0.0291,-0.0294,-0.0298,0,0,0,0,0,0,0,0,0,0,0,0,0,-0.0066,-0.0025,-0.0075,-0.0105,-0.0108,-0.0144,-0.0145,-0.0146,-0.0187,-0.0187,-0.0187,-0.0187,-0.029,-0.0294,-0.0298,-0.0321,0,0,-0.031,-0.0312,0,0,0,0,0,0,0,0,-0.0063,-0.0068,-0.01,-0.0103,-0.0106,-0.0156,-0.0165,-0.0206,-0.0187,-0.0158,-0.0187,-0.0187,-0.0249,-0.0256,-0.027,-0.0326,-0.033,-0.0311,-0.0313,-0.0315,-0.0316,0,0,0,0,0,0,0,-0.006,-0.0065,-0.0104,-0.01,-0.0104,-0.0129,-0.0135,-0.0173,-0.0204,-0.0161,-0.0164,-0.0169,-0.0251,-0.0266,-0.0273,-0.0332,-0.0311,-0.0314,-0.0317,-0.0318,-0.0398,-0.0397,0,0,0,0,0,0,-0.0047,-0.0062,-0.0102,-0.0106,-0.0083,-0.013,-0.0136,-0.0141,-0.0203,-0.0211,-0.0169,-0.0171,-0.0259,-0.0268,-0.0277,-0.0296,-0.0315,-0.0319,-0.0321,-0.0398,-0.0398,-0.0397,0,0,0,0,0,0,-0.0046,-0.005,-0.0099,-0.0085,-0.0093,-0.013,-0.0135,-0.0142,-0.0156,-0.0208,-0.0218,-0.0175,-0.026,-0.0271,-0.0307,-0.0301,-0.0321,-0.0324,-0.0398,-0.0398,-0.0397,-0.0342,0,0,0,0,0,0,-0.0044,-0.0049,-0.0049,-0.0084,-0.0093,-0.0115,-0.0135,-0.0143,-0.0159,-0.0162,-0.0217,-0.0227,-0.0261,-0.0301,-0.0311,-0.0307,-0.0328,-0.0399,-0.0398,-0.0398,-0.0345,-0.034,-0.0336,0,0,0,0,0,-0.0042,-0.0041,-0.0048,-0.0053,-0.0091,-0.0114,-0.0121,-0.015,-0.0159,-0.0163,-0.0199,-0.0225,-0.0304,-0.0304,-0.0316,-0.0313,-0.0399,-0.0398,-0.0398,-0.0347,-0.0341,-0.0336,0,0,0,0,0,0,-0.002,-0.0046,-0.0055,-0.0062,-0.0083,-0.0121,-0.0128,-0.0145,-0.0177,-0.018,-0.0228,-0.024,-0.0268,-0.0298,-0.0297,-0.0333,-0.0353,-0.0355,-0.031,-0.0305,-0.0301,-0.0286,-0.0331,0,0,0,0,0,-0.0013,-0.0018,-0.0046,-0.0052,-0.006,-0.0092,-0.0105,-0.0122,-0.0154,-0.0168,-0.0204,-0.0242,-0.0275,-0.0295,-0.033,-0.0354,-0.0372,-0.0358,-0.0353,-0.035,-0.0345,-0.037,-0.0367,-0.0395,-0.0395,-0.0395,0,0,-0.0007,-0.0021,-0.0024,-0.0047,-0.0066,-0.0073,-0.01,-0.0116,-0.0122,-0.0175,-0.0196,-0.0231,-0.0278,-0.0303,-0.0317,-0.0327,-0.0348,-0.0349,-0.0345,-0.0342,-0.0369,-0.0366,-0.0364,-0.0394,-0.0394,-0.0394,0,0,0.0009,-0.0006,-0.0003,-0.0017,-0.0039,-0.0058,-0.0059,-0.0092,-0.0107,-0.0132,-0.0167,-0.0196,-0.025,-0.0278,-0.03,-0.0294,-0.0325,-0.0304,-0.0273,-0.0297,-0.0295,-0.0293,-0.0296,-0.0295,-0.0302,-0.0301,-0.0301,0,0.0019,0.002,-0.0006,-0.0006,-0.0012,-0.0046,-0.0042,-0.0064,-0.0103,-0.0112,-0.0129,-0.0196,-0.0236,-0.0264,-0.0261,-0.0284,-0.0297,-0.0288,-0.0291,-0.029,-0.0289,-0.0293,-0.0292,-0.0299,-0.0299,-0.0299,-0.03,0,0.0038,0.0038,0.0039,0.0031,0.002,0.0017,-0.001,-0.0022,-0.0043,-0.0066,-0.0096,-0.0149,-0.0186,-0.0203,-0.0234,-0.0247,-0.0255,-0.0282,-0.0301,-0.0283,-0.0288,-0.0288,-0.0295,-0.0296,-0.0297,-0.0297,0,0,0.0067,0.0055,0.0057,0.0065,0.0041,0.0038,0.003,0.0015,0.0018,-0.0027,-0.0028,-0.009,-0.0117,-0.0143,-0.0184,-0.0207,-0.0212,-0.0238,-0.0241,-0.0236,-0.0249,-0.0255,-0.0256,-0.0241,-0.0242,-0.0242,-0.0248,0,0.0093,0.0108,0.0092,0.011,0.0117,0.009,0.0088,0.0069,0.0046,0.0034,-0.002,-0.0043,-0.0095,-0.0108,-0.0141,-0.0197,-0.0214,-0.0207,-0.0272,-0.0274,-0.0278,-0.0258,-0.0253,-0.0259,-0.0249,-0.0249,-0.0249,0,0.0122,0.0129,0.015,0.0159,0.0161,0.0163,0.0165,0.0158,0.0127,0.0109,0.0073,0.0032,-0.0011,-0.0056,-0.0136,-0.0129,-0.0181,-0.0224,-0.0226,-0.0252,-0.0282,-0.028,-0.0261,-0.0385,-0.0251,-0.0251,-0.0251,0,0.0164,0.0174,0.0195,0.0196,0.0195,0.0203,0.0201,0.0181,0.0189,0.0157,0.0162,0.0094,0.0076,-0.0008,-0.0099,-0.0118,-0.0179,-0.0218,-0.0267,-0.0267,-0.0287,-0.0289,-0.0393,-0.0267,-0.0267,-0.0267,-0.0267,0,0.0201,0.0221,0.0218,0.0231,0.0263,0.0245,0.0272,0.026,0.0255,0.0276,0.0204,0.0215,0.0087,0.0035,-0.0066,-0.0159,-0.0154,-0.0253,-0.0271,-0.0266,-0.0265,-0.0395,-0.0476,-0.0267,-0.0267,-0.0267,-0.0267,0,0.0242,0.0239,0.0267,0.0276,0.0283,0.0304,0.0324,0.0346,0.0331,0.0358,0.0355,0.0312,0.0246,0.0124,0.0004,-0.0098,-0.0275,-0.0233,-0.0205,-0.0221,-0.0397,-0.0475,-0.0613,-0.0673,-0.0292,-0.0292,-0.0292,0,0.0264,0.028,0.0303,0.0326,0.0331,0.0358,0.0383,0.0381,0.041,0.0425,0.0453,0.0409,0.0395,0.0222,0.0034,-0.013,-0.0266,-0.0241,-0.0288,-0.0399,-0.05,-0.0568,-0.0614,-0.0283,-0.0283,-0.0283,-0.0283,0,0.0305,0.0309,0.0331,0.0376,0.0408,0.0446,0.0483,0.0522,0.0532,0.0569,0.0619,0.0616,0.0456,0.0306,0.0073,-0.0064,-0.0347,-0.0248,-0.038,-0.0513,-0.0578,-0.0647,-0.0274,-0.0284,-0.0284,-0.0284,-0.0284,-0.0284,0.0336,0.0358,0.0385,0.043,0.0471,0.0529,0.0573,0.0631,0.0701,0.077,0.0758,0.079,0.0551,0.024,0.0031,-0.0337,-0.0356,-0.0449,-0.0534,-0.059,-0.0662,-0.0278,-0.0305,-0.0305,-0.0305,-0.0305,-0.0305,0,0.0373,0.0396,0.044,0.0492,0.0544,0.0558,0.0639,0.0695,0.0796,0.0883,0.0935,0.0867,0.0548,0.0212,-0.0273,-0.0555,-0.0683,-0.072,-0.0825,-0.0858,-0.0524,-0.0537,-0.0595,-0.0595,-0.0595,-0.0595,-0.0594,-0.0594,0.0394,0.0438,0.0456,0.0542,0.0584,0.066,0.0712,0.0809,0.0894,0.1021,0.1081,0.1108,0.0889,-0.0059,-0.0686,-0.0842,-0.1063,-0.1119,-0.1221,-0.1004,-0.0986,-0.0968,-0.0998,-0.1153,-0.1153,-0.1516,-0.152,-0.1523]}],[{"header":{"parameterUnit":"m.s-1","parameterCategory":2,"la1":30.2991,"la2":30.254,"lo1":-89.0895,"lo2":-89.0444,"dy":0.0017,"dx":0.0017,"nx":28,"ny":28,"refTime":"2025-04-20T03:00:00:Z","depth":"2","parameterNumber":2,"parameterNumberName":"U-component_of_CURRENTS"},"data":[0,0,0,0,0,0,0,0,0,0,0,0,0,0,0,0,0,0,0,0,0,0,0,0,0,0,0,0,0,0,0,0,0,0,0,0,0,0,0,0,0,0,0,0,0,0,0,0,0,0,0,0,0,0,0,0,0,0,0.1674,0.1674,0,0.1696,0.1696,0.1696,0.1684,0.1684,0.1683,0.1683,0.1676,0.1676,0.1676,0,0,0,0,0,0,0,0,0,0,0,0,0,0.1638,0.1638,0.1674,0.1674,0.1675,0.1696,0.1696,0.1696,0.1684,0.1684,0.1683,0.1683,0.1676,0.1676,0.1676,0,0,0,0,0,0,0,0,0,0,0,0,0,0.1655,0.1638,0.1674,0.1672,0.1672,0.1696,0.1696,0.1696,0.1684,0.1684,0.1683,0.1682,0.1676,0.1676,0.1676,0.1694,0,0,0.1678,0.1678,0,0,0,0,0,0,0,0,0.1654,0.1656,0.1672,0.1672,0.1673,0.1687,0.1681,0.1694,0.1685,0.1679,0.1683,0.1682,0.1678,0.1678,0.1683,0.1694,0.1693,0.1678,0.1678,0.1678,0.1678,0,0,0,0,0,0,0,0.1653,0.1655,0.1681,0.1673,0.1673,0.1676,0.1677,0.1683,0.1681,0.1679,0.1679,0.1683,0.1678,0.1683,0.1683,0.1693,0.1678,0.1678,0.1678,0.1679,0.1734,0.1735,0,0,0,0,0,0,0.1652,0.1654,0.1681,0.1682,0.1662,0.1677,0.1678,0.1682,0.1682,0.1681,0.1684,0.1682,0.1682,0.1682,0.1682,0.1718,0.1678,0.1679,0.1679,0.1733,0.1734,0.1736,0,0,0,0,0,0,0.1651,0.1654,0.168,0.1669,0.1673,0.1678,0.1683,0.1683,0.1693,0.1685,0.1684,0.1693,0.1682,0.1682,0.1696,0.1716,0.1679,0.1679,0.1732,0.1733,0.1735,0.1778,0,0,0,0,0,0,0.165,0.1654,0.1663,0.1669,0.1673,0.1701,0.1684,0.1684,0.1697,0.1696,0.1694,0.1692,0.1681,0.1695,0.1696,0.1716,0.1679,0.173,0.1732,0.1735,0.1775,0.1781,0.1786,0,0,0,0,0,0.1649,0.1665,0.1663,0.1667,0.1684,0.1702,0.1705,0.1705,0.1698,0.1709,0.1707,0.1692,0.1711,0.1697,0.1698,0.1718,0.1729,0.1732,0.1734,0.1773,0.178,0.1786,0,0,0,0,0,0,0.1654,0.1666,0.1664,0.1683,0.1694,0.1701,0.1716,0.1713,0.1721,0.172,0.1707,0.1706,0.1726,0.172,0.1705,0.1742,0.1718,0.1721,0.1747,0.1754,0.1759,0.1757,0.168,0,0,0,0,0,0.1661,0.1675,0.1684,0.17,0.1709,0.1714,0.1723,0.1723,0.1728,0.1731,0.1728,0.173,0.174,0.1744,0.1748,0.177,0.1777,0.1785,0.179,0.1795,0.1795,0.1834,0.1844,0.1745,0.1745,0.1745,0,0,0.1664,0.1676,0.1682,0.1703,0.1712,0.1725,0.1718,0.1737,0.1746,0.173,0.1745,0.175,0.175,0.1772,0.1781,0.1768,0.1828,0.1798,0.1802,0.18,0.1838,0.1848,0.1856,0.1747,0.1746,0.1746,0,0,0.1678,0.1694,0.1707,0.1719,0.1738,0.1744,0.1751,0.1763,0.1769,0.1786,0.178,0.1798,0.1806,0.1815,0.1819,0.1861,0.1857,0.1864,0.1891,0.1929,0.1938,0.1945,0.1971,0.1981,0.1867,0.1867,0.1867,0,0.168,0.1696,0.1714,0.173,0.174,0.1753,0.1763,0.1779,0.1791,0.1804,0.1794,0.1827,0.1826,0.1861,0.1873,0.1873,0.1891,0.1863,0.1937,0.1944,0.1951,0.1976,0.1986,0.1869,0.1869,0.1869,0.1869,0,0.1697,0.171,0.1724,0.1742,0.1761,0.1776,0.1795,0.1815,0.1824,0.1835,0.1872,0.188,0.1899,0.1907,0.19,0.1952,0.1948,0.194,0.1918,0.1964,0.1987,0.1996,0.1873,0.1872,0.1871,0.1871,0,0,0.1684,0.1724,0.1726,0.1734,0.1766,0.1779,0.1811,0.1841,0.1864,0.1887,0.1919,0.1944,0.1955,0.1962,0.1967,0.1997,0.206,0.199,0.1991,0.2014,0.2145,0.2135,0.2144,0.207,0.2072,0.2073,0.2143,0,0.1683,0.1708,0.1731,0.1751,0.1762,0.1793,0.1822,0.1856,0.1883,0.1923,0.1954,0.1985,0.1976,0.1992,0.2025,0.2055,0.2087,0.2042,0.2099,0.2101,0.2085,0.2155,0.2002,0.2051,0.2152,0.2154,0.2155,0,0.1676,0.1697,0.1715,0.1753,0.1763,0.178,0.183,0.1858,0.1923,0.1951,0.1997,0.2022,0.208,0.2059,0.2139,0.2114,0.2132,0.2149,0.2152,0.2132,0.2109,0.2022,0.2064,0.217,0.2169,0.2168,0.2167,0,0.1641,0.1679,0.1692,0.1703,0.1753,0.1772,0.1803,0.1863,0.1896,0.1972,0.2008,0.2075,0.2116,0.2159,0.2197,0.2178,0.2279,0.2255,0.2261,0.226,0.2134,0.212,0.2307,0.2307,0.2307,0.2307,0.2307,0,0.1619,0.1626,0.1676,0.1681,0.1704,0.1752,0.1785,0.1831,0.1904,0.1951,0.2019,0.2071,0.2144,0.2207,0.2228,0.2285,0.2309,0.2282,0.2287,0.2146,0.2132,0.2231,0.2222,0.231,0.2309,0.2309,0.2308,0,0.1565,0.1599,0.1612,0.1667,0.1683,0.1698,0.1762,0.1795,0.1874,0.194,0.197,0.2087,0.2182,0.2244,0.2324,0.2327,0.2374,0.2378,0.2206,0.219,0.2319,0.231,0.2404,0.2405,0.2405,0.2406,0.2406,0,0.1537,0.1541,0.1586,0.1597,0.1618,0.1651,0.168,0.1763,0.1805,0.1942,0.1977,0.2101,0.2181,0.231,0.2346,0.2404,0.2404,0.2271,0.2207,0.2338,0.2334,0.2325,0.2316,0.2055,0.2052,0.205,0.2048,0,0.1485,0.1502,0.152,0.1543,0.1568,0.1591,0.1642,0.1672,0.178,0.1851,0.1961,0.2043,0.2193,0.2208,0.2293,0.2293,0.2255,0.2231,0.2425,0.206,0.2016,0.2009,0.2011,0.2029,0.2031,0.2032,0.2033,0.2034,0.1444,0.1443,0.1472,0.1486,0.1512,0.153,0.1532,0.1602,0.1662,0.1757,0.1878,0.1956,0.2045,0.2117,0.2088,0.2071,0.2219,0.2116,0.212,0.2126,0.2079,0.2039,0.2047,0.2049,0.205,0.2052,0.2053,0,0.1389,0.1402,0.1416,0.1432,0.1432,0.1466,0.1506,0.1505,0.1548,0.166,0.1746,0.1701,0.1759,0.1828,0.1801,0.184,0.178,0.1748,0.1649,0.1673,0.1693,0.1619,0.1467,0.1464,0.1462,0.146,0,0,0.1364,0.1356,0.1364,0.1347,0.1358,0.1338,0.1342,0.1359,0.1417,0.145,0.1491,0.1663,0.1789,0.1588,0.16,0.1522,0.1563,0.1464,0.1947,0.1854,0.187,0.1939,0.1858,0,0,0,0,0]},{"header":{"parameterUnit":"m.s-1","parameterCategory":2,"la1":30.2991,"la2":30.254,"lo1":-89.0895,"lo2":-89.0444,"dy":0.0017,"dx":0.0017,"nx":28,"ny":28,"refTime":"2025-04-20T03:00:00:Z","depth":"2","parameterNumber":3,"parameterNumberName":"V-component_of_CURRENTS"},"data":[0,0,0,0,0,0,0,0,0,0,0,0,0,0,0,0,0,0,0,0,0,0,0,0,0,0,0,0,0,0,0,0,0,0,0,0,0,0,0,0,0,0,0,0,0,0,0,0,0,0,0,0,0,0,0,0,0,0,-0.0161,-0.0162,0,-0.022,-0.0221,-0.0222,-0.0258,-0.0258,-0.0258,-0.0258,-0.0359,-0.0362,-0.0364,0,0,0,0,0,0,0,0,0,0,0,0,0,-0.0125,-0.0125,-0.0161,-0.0162,-0.0163,-0.022,-0.0221,-0.0222,-0.0258,-0.0258,-0.0258,-0.0258,-0.0358,-0.0361,-0.0364,0,0,0,0,0,0,0,0,0,0,0,0,0,-0.0159,-0.0125,-0.0161,-0.0187,-0.0189,-0.022,-0.0221,-0.0222,-0.0258,-0.0258,-0.0258,-0.0258,-0.0357,-0.0361,-0.0365,-0.0387,0,0,-0.0377,-0.0379,0,0,0,0,0,0,0,0,-0.0157,-0.0161,-0.0182,-0.0185,-0.0188,-0.0231,-0.0245,-0.0279,-0.0258,-0.0233,-0.0258,-0.0258,-0.0319,-0.0326,-0.0338,-0.0392,-0.0396,-0.0377,-0.038,-0.0381,-0.0382,0,0,0,0,0,0,0,-0.0155,-0.0159,-0.0186,-0.0183,-0.0186,-0.021,-0.0215,-0.0252,-0.0277,-0.0235,-0.0238,-0.0242,-0.0321,-0.0334,-0.0341,-0.0398,-0.0377,-0.0381,-0.0383,-0.0385,-0.0461,-0.0461,0,0,0,0,0,0,-0.0142,-0.0156,-0.0184,-0.0188,-0.0171,-0.0211,-0.0216,-0.0218,-0.0275,-0.0284,-0.0242,-0.0244,-0.0328,-0.0336,-0.0345,-0.0363,-0.0381,-0.0385,-0.0387,-0.0461,-0.0461,-0.046,0,0,0,0,0,0,-0.0141,-0.0144,-0.0182,-0.0172,-0.0179,-0.0211,-0.0213,-0.0219,-0.0231,-0.028,-0.0289,-0.0247,-0.0328,-0.0339,-0.0373,-0.0368,-0.0387,-0.039,-0.0462,-0.0461,-0.0461,-0.0408,0,0,0,0,0,0,-0.014,-0.0143,-0.0142,-0.0171,-0.0179,-0.0195,-0.0213,-0.022,-0.0233,-0.0236,-0.0288,-0.0297,-0.0329,-0.0367,-0.0377,-0.0374,-0.0393,-0.0462,-0.0461,-0.0461,-0.041,-0.0405,-0.0402,0,0,0,0,0,-0.0138,-0.0134,-0.0141,-0.0145,-0.0175,-0.0194,-0.02,-0.0225,-0.0233,-0.0236,-0.027,-0.0295,-0.037,-0.037,-0.0382,-0.038,-0.0462,-0.0462,-0.0461,-0.0412,-0.0406,-0.0402,0,0,0,0,0,0,-0.0116,-0.0138,-0.0146,-0.0148,-0.0167,-0.02,-0.0205,-0.0221,-0.025,-0.0252,-0.0298,-0.0309,-0.0336,-0.0365,-0.0363,-0.0398,-0.0418,-0.042,-0.0376,-0.0372,-0.0368,-0.0351,-0.0397,0,0,0,0,0,-0.011,-0.0112,-0.0137,-0.0138,-0.0145,-0.0174,-0.0185,-0.02,-0.0228,-0.0241,-0.0275,-0.0311,-0.0343,-0.0362,-0.0395,-0.0418,-0.0435,-0.0422,-0.0418,-0.0414,-0.0408,-0.0433,-0.0431,-0.0458,-0.0458,-0.0458,0,0,-0.0101,-0.0113,-0.0115,-0.0133,-0.015,-0.0155,-0.0181,-0.0193,-0.0197,-0.0248,-0.0266,-0.0301,-0.0346,-0.0369,-0.0383,-0.0392,-0.0412,-0.0413,-0.041,-0.0406,-0.0432,-0.043,-0.0427,-0.0458,-0.0458,-0.0458,0,0,-0.0083,-0.0095,-0.009,-0.0103,-0.0122,-0.014,-0.014,-0.0169,-0.0182,-0.0205,-0.0239,-0.0267,-0.0318,-0.0345,-0.0366,-0.036,-0.039,-0.037,-0.0339,-0.0363,-0.0361,-0.0359,-0.0362,-0.0361,-0.0368,-0.0368,-0.0368,0,-0.007,-0.0068,-0.0092,-0.0091,-0.0095,-0.0128,-0.0122,-0.0142,-0.0178,-0.0186,-0.0202,-0.0265,-0.0304,-0.033,-0.0327,-0.035,-0.0363,-0.0353,-0.0357,-0.0356,-0.0355,-0.0359,-0.0359,-0.0365,-0.0365,-0.0366,-0.0366,0,-0.005,-0.0048,-0.0046,-0.0053,-0.0062,-0.0063,-0.0089,-0.0099,-0.0118,-0.014,-0.0168,-0.0218,-0.0253,-0.027,-0.03,-0.0312,-0.0322,-0.0349,-0.0367,-0.0349,-0.0354,-0.0355,-0.0361,-0.0362,-0.0363,-0.0364,0,0,-0.0016,-0.0028,-0.0026,-0.0019,-0.0041,-0.0043,-0.0049,-0.0062,-0.0058,-0.01,-0.01,-0.0159,-0.0184,-0.021,-0.025,-0.0273,-0.0278,-0.0304,-0.0307,-0.0302,-0.0315,-0.0325,-0.0327,-0.0308,-0.0308,-0.0308,-0.0315,0,0.001,0.0025,0.001,0.0028,0.0035,0.0009,0.0009,-0.0008,-0.003,-0.004,-0.0092,-0.0113,-0.0163,-0.0175,-0.0207,-0.0263,-0.0279,-0.0272,-0.0338,-0.0339,-0.0347,-0.0329,-0.0315,-0.0321,-0.0316,-0.0317,-0.0317,0,0.0039,0.0046,0.0066,0.0074,0.0076,0.008,0.0082,0.0077,0.0049,0.0032,-0.0001,-0.004,-0.0081,-0.0124,-0.0202,-0.0196,-0.0247,-0.0289,-0.0291,-0.0321,-0.0351,-0.0343,-0.0323,-0.0318,-0.0318,-0.0318,-0.0318,0,0.0079,0.0089,0.0109,0.011,0.0109,0.0118,0.0117,0.01,0.0107,0.0078,0.0083,0.002,0.0002,-0.0079,-0.0169,-0.0186,-0.0249,-0.0284,-0.0337,-0.0337,-0.0348,-0.0349,-0.0332,-0.0332,-0.0332,-0.0332,-0.0331,0,0.0114,0.0133,0.0131,0.0143,0.0175,0.0158,0.0185,0.0175,0.0171,0.019,0.0123,0.0132,0.0012,-0.0041,-0.0138,-0.0232,-0.0225,-0.0322,-0.0342,-0.0328,-0.0327,-0.0349,-0.0351,-0.0332,-0.0332,-0.0332,-0.0332,0,0.0151,0.0149,0.0176,0.0185,0.0193,0.0213,0.0234,0.0255,0.0242,0.0267,0.0265,0.0222,0.0154,0.0038,-0.008,-0.0176,-0.0276,-0.031,-0.0274,-0.029,-0.0354,-0.0353,-0.0368,-0.0368,-0.0369,-0.0369,-0.0369,0,0.0171,0.0187,0.021,0.0232,0.0238,0.0264,0.0288,0.0288,0.0315,0.0328,0.0352,0.0307,0.0285,0.0114,-0.0063,-0.022,-0.0253,-0.0316,-0.0355,-0.034,-0.0358,-0.0357,-0.0355,-0.0339,-0.0339,-0.0339,-0.0339,0,0.0209,0.0213,0.0235,0.0278,0.0309,0.0346,0.0381,0.0417,0.0426,0.0458,0.0497,0.0488,0.0331,0.018,-0.0042,-0.0161,-0.0295,-0.0321,-0.0316,-0.0336,-0.0315,-0.0332,-0.0332,-0.0339,-0.0339,-0.0339,-0.0339,-0.0339,0.0237,0.0257,0.0284,0.0327,0.0367,0.0422,0.0462,0.0514,0.0575,0.063,0.0613,0.0609,0.0424,0.0154,-0.0055,-0.0282,-0.0279,-0.0364,-0.0363,-0.0362,-0.0361,-0.0343,-0.037,-0.037,-0.0371,-0.0371,-0.0371,0,0.027,0.0292,0.0333,0.0384,0.0433,0.0448,0.0523,0.0568,0.0655,0.0713,0.0748,0.0592,0.042,0.0203,-0.0127,-0.0328,-0.0352,-0.0394,-0.0378,-0.0376,-0.0375,-0.0375,-0.0388,-0.0389,-0.0389,-0.039,0,0,0.0288,0.0328,0.0345,0.0426,0.0469,0.0539,0.0586,0.0663,0.0721,0.0783,0.0796,0.0776,0.051,0.0275,-0.0002,-0.0193,-0.0242,-0.0237,-0.0203,-0.0151,-0.0148,-0.0339,-0.0335,0,0,0,0,0]}],[{"header":{"parameterUnit":"m.s-1","parameterCategory":2,"la1":30.2991,"la2":30.254,"lo1":-89.0895,"lo2":-89.0444,"dy":0.0017,"dx":0.0017,"nx":28,"ny":28,"refTime":"2025-04-20T03:00:00:Z","depth":"4","parameterNumber":2,"parameterNumberName":"U-component_of_CURRENTS"},"data":[0,0,0,0,0,0,0,0,0,0,0,0,0,0,0,0,0,0,0,0,0,0,0,0,0,0,0,0,0,0,0,0,0,0,0,0,0,0,0,0,0,0,0,0,0,0,0,0,0,0,0,0,0,0,0,0,0,0,0.108,0.108,0,0.1119,0.1119,0.112,0.1154,0.1154,0.1155,0.1155,0.1206,0.1207,0.1208,0,0,0,0,0,0,0,0,0,0,0,0,0,0.1013,0.1014,0.108,0.108,0.1081,0.1119,0.1119,0.112,0.1154,0.1154,0.1155,0.1156,0.1206,0.1207,0.1208,0,0,0,0,0,0,0,0,0,0,0,0,0,0.1044,0.1014,0.108,0.1104,0.1106,0.1119,0.1119,0.112,0.1153,0.1154,0.1155,0.1156,0.1206,0.1207,0.1208,0.1199,0,0,0.1212,0.1212,0,0,0,0,0,0,0,0,0.1042,0.1046,0.11,0.1102,0.1105,0.1134,0.1115,0.1148,0.1153,0.1134,0.1155,0.1156,0.1184,0.1187,0.119,0.1202,0.1204,0.1212,0.1213,0.1213,0.1214,0,0,0,0,0,0,0,0.104,0.1045,0.1093,0.11,0.1104,0.1106,0.1111,0.1121,0.1152,0.1135,0.1138,0.1145,0.1185,0.1188,0.1191,0.1205,0.1212,0.1213,0.1214,0.1214,0.1294,0.1295,0,0,0,0,0,0,0.1039,0.1043,0.1092,0.1095,0.1077,0.1106,0.1112,0.1122,0.1152,0.1158,0.1145,0.1147,0.1186,0.119,0.1193,0.1254,0.1213,0.1214,0.1215,0.1293,0.1294,0.1296,0,0,0,0,0,0,0.1038,0.1043,0.1091,0.1071,0.1077,0.1107,0.1118,0.1123,0.1149,0.1159,0.1165,0.1169,0.1186,0.1191,0.1226,0.1253,0.1215,0.1216,0.1291,0.1293,0.1295,0.1331,0,0,0,0,0,0,0.1036,0.1043,0.1058,0.1071,0.1079,0.1113,0.1117,0.1123,0.1152,0.1156,0.1182,0.1186,0.1187,0.1224,0.1227,0.1255,0.1217,0.1289,0.1292,0.1294,0.1328,0.1334,0.1339,0,0,0,0,0,0.1033,0.1046,0.1058,0.1065,0.1096,0.1114,0.1118,0.114,0.1153,0.1167,0.1189,0.1186,0.1243,0.1226,0.1229,0.1258,0.1288,0.1291,0.1294,0.1326,0.1333,0.1339,0,0,0,0,0,0,0.1023,0.1051,0.1065,0.1086,0.1108,0.1121,0.1139,0.1152,0.118,0.1192,0.1199,0.1205,0.1246,0.1248,0.1229,0.129,0.1267,0.1271,0.129,0.1296,0.1302,0.1304,0.1218,0,0,0,0,0,0.1029,0.1049,0.1072,0.1091,0.1104,0.1126,0.114,0.1157,0.1178,0.1192,0.1212,0.1235,0.1256,0.1274,0.1289,0.132,0.1326,0.1342,0.1348,0.1353,0.1358,0.1382,0.1389,0.1306,0.1306,0.1306,0,0,0.103,0.1049,0.1061,0.1092,0.1111,0.1134,0.1137,0.1167,0.1192,0.1193,0.124,0.1254,0.1268,0.1304,0.1323,0.1313,0.1384,0.1356,0.136,0.1363,0.1386,0.1394,0.1401,0.1308,0.1307,0.1307,0,0,0.1038,0.1062,0.1082,0.1104,0.114,0.1153,0.1167,0.1197,0.122,0.1259,0.1269,0.1302,0.1335,0.1351,0.1362,0.1407,0.141,0.1419,0.1451,0.1475,0.1482,0.1487,0.1522,0.1531,0.1424,0.1424,0.1425,0,0.1041,0.1071,0.109,0.1117,0.1139,0.1165,0.1192,0.1215,0.1255,0.1277,0.1283,0.1343,0.1356,0.1397,0.1418,0.1419,0.1437,0.1423,0.1481,0.1487,0.1492,0.1526,0.1535,0.1427,0.1426,0.1426,0.1426,0,0.106,0.1094,0.1108,0.1152,0.1176,0.1205,0.1238,0.127,0.1301,0.1324,0.1378,0.1397,0.1434,0.1446,0.1448,0.1498,0.1501,0.1481,0.1461,0.1503,0.1536,0.1545,0.143,0.1429,0.1428,0.1428,0,0,0.1046,0.111,0.1119,0.1148,0.1201,0.122,0.1267,0.1311,0.1346,0.1389,0.1433,0.1475,0.1491,0.1505,0.1515,0.154,0.16,0.1535,0.1535,0.1564,0.1668,0.1577,0.1578,0.1591,0.1592,0.1593,0.1681,0,0.1061,0.1113,0.1143,0.1197,0.1226,0.1266,0.1304,0.1349,0.1388,0.1436,0.1468,0.1514,0.1512,0.1539,0.1564,0.1589,0.1623,0.1579,0.1627,0.1629,0.1538,0.1585,0.1598,0.1687,0.1689,0.169,0.1692,0,0.1071,0.1107,0.1161,0.1225,0.1242,0.1279,0.1345,0.1384,0.1448,0.1481,0.153,0.1555,0.1613,0.1596,0.1667,0.1642,0.1665,0.1679,0.1682,0.1588,0.1554,0.1633,0.1707,0.1706,0.1705,0.1704,0.1703,0,0.1047,0.1119,0.1164,0.1187,0.126,0.1296,0.1339,0.1403,0.1441,0.1517,0.1553,0.1612,0.1657,0.1688,0.1728,0.1707,0.1797,0.1765,0.1708,0.1703,0.1741,0.1733,0.1814,0.1814,0.1814,0.1814,0.1814,0,0.1042,0.1081,0.1161,0.1185,0.1238,0.1296,0.1353,0.1402,0.1475,0.1518,0.158,0.1618,0.1683,0.1737,0.1755,0.1764,0.1823,0.1725,0.1717,0.1757,0.175,0.1748,0.174,0.1817,0.1816,0.1816,0.1815,0,0.1006,0.1062,0.1114,0.12,0.1229,0.1268,0.1357,0.1393,0.1473,0.1532,0.1562,0.1651,0.1717,0.1774,0.1838,0.1795,0.1813,0.1803,0.1869,0.1862,0.1699,0.1691,0.174,0.1738,0.1736,0.1734,0.1732,0,0.0991,0.1017,0.1111,0.1141,0.1184,0.125,0.129,0.138,0.1414,0.1534,0.1553,0.1657,0.1704,0.1728,0.179,0.1827,0.1806,0.1805,0.1724,0.1703,0.1692,0.1687,0.1682,0.1729,0.1729,0.1728,0.1727,0,0.0957,0.0999,0.104,0.1102,0.1154,0.1197,0.1263,0.128,0.1379,0.1466,0.1509,0.155,0.1626,0.1671,0.1721,0.1737,0.1792,0.1782,0.1785,0.1709,0.169,0.1679,0.1677,0.172,0.1721,0.1722,0.1722,0,0.093,0.0946,0.1006,0.1049,0.1109,0.113,0.1169,0.1214,0.1261,0.1387,0.1401,0.1512,0.1606,0.1627,0.1669,0.1684,0.1652,0.1588,0.1601,0.161,0.1525,0.1479,0.1448,0,0,0,0,0,0.0897,0.0908,0.0948,0.0989,0.1044,0.1076,0.1145,0.1185,0.1278,0.1276,0.1334,0.1396,0.1457,0.1516,0.1507,0.162,0.1664,0.1603,0.1597,0.1679,0.1688,0.1599,0,0,0,0,0,0,0.0875,0.0911,0.0924,0.093,0.0945,0.0992,0.1031,0.1093,0.1093,0.1195,0.1236,0.1318,0.1401,0.1453,0.1483,0.1503,0.1472,0.1676,0.1673,0.1674,0.1682,0.1689,0.1601,0,0,0,0,0]},{"header":{"parameterUnit":"m.s-1","parameterCategory":2,"la1":30.2991,"la2":30.254,"lo1":-89.0895,"lo2":-89.0444,"dy":0.0017,"dx":0.0017,"nx":28,"ny":28,"refTime":"2025-04-20T03:00:00:Z","depth":"4","parameterNumber":3,"parameterNumberName":"V-component_of_CURRENTS"},"data":[0,0,0,0,0,0,0,0,0,0,0,0,0,0,0,0,0,0,0,0,0,0,0,0,0,0,0,0,0,0,0,0,0,0,0,0,0,0,0,0,0,0,0,0,0,0,0,0,0,0,0,0,0,0,0,0,0,0,-0.0081,-0.0081,0,-0.0102,-0.0103,-0.0103,-0.0122,-0.0122,-0.0122,-0.0122,-0.0162,-0.0163,-0.0164,0,0,0,0,0,0,0,0,0,0,0,0,0,-0.0079,-0.0078,-0.0081,-0.0081,-0.0081,-0.0102,-0.0103,-0.0103,-0.0122,-0.0122,-0.0122,-0.0122,-0.0162,-0.0163,-0.0164,0,0,0,0,0,0,0,0,0,0,0,0,0,-0.0088,-0.0078,-0.008,-0.0093,-0.0094,-0.0102,-0.0103,-0.0103,-0.0122,-0.0122,-0.0122,-0.0123,-0.0161,-0.0162,-0.0164,-0.0165,0,0,-0.0168,-0.0168,0,0,0,0,0,0,0,0,-0.0087,-0.0088,-0.0091,-0.0092,-0.0094,-0.011,-0.0116,-0.0125,-0.0122,-0.0111,-0.0122,-0.0123,-0.0146,-0.0148,-0.0151,-0.0167,-0.0169,-0.0168,-0.0168,-0.0169,-0.0169,0,0,0,0,0,0,0,-0.0086,-0.0087,-0.0089,-0.0091,-0.0093,-0.0106,-0.0107,-0.0118,-0.0127,-0.0112,-0.0114,-0.0116,-0.0147,-0.015,-0.0153,-0.0169,-0.0168,-0.0169,-0.017,-0.017,-0.0198,-0.0198,0,0,0,0,0,0,-0.0082,-0.0086,-0.0088,-0.009,-0.0091,-0.0105,-0.0107,-0.0104,-0.0126,-0.013,-0.0116,-0.0117,-0.0148,-0.0151,-0.0154,-0.0159,-0.0169,-0.017,-0.0171,-0.0198,-0.0198,-0.0198,0,0,0,0,0,0,-0.0082,-0.0082,-0.0088,-0.0089,-0.0091,-0.0105,-0.0102,-0.0104,-0.0111,-0.0129,-0.0133,-0.012,-0.0148,-0.0152,-0.0165,-0.0161,-0.0171,-0.0172,-0.0198,-0.0198,-0.0198,-0.0168,0,0,0,0,0,0,-0.0082,-0.0082,-0.008,-0.0088,-0.009,-0.009,-0.0102,-0.0105,-0.0112,-0.0114,-0.0134,-0.0138,-0.0149,-0.0163,-0.0166,-0.0163,-0.0173,-0.0198,-0.0198,-0.0198,-0.0169,-0.0166,-0.0165,0,0,0,0,0,-0.0081,-0.0071,-0.0079,-0.008,-0.0086,-0.009,-0.0092,-0.0103,-0.0112,-0.0111,-0.0127,-0.0137,-0.0165,-0.0164,-0.0168,-0.0164,-0.0198,-0.0198,-0.0198,-0.0169,-0.0167,-0.0165,0,0,0,0,0,0,-0.0064,-0.0072,-0.0081,-0.0073,-0.0082,-0.0093,-0.0092,-0.0103,-0.0115,-0.0118,-0.0137,-0.0141,-0.0151,-0.0163,-0.0161,-0.0173,-0.0183,-0.0184,-0.016,-0.0158,-0.0156,-0.0147,-0.0174,0,0,0,0,0,-0.0061,-0.0058,-0.0069,-0.0063,-0.0067,-0.0082,-0.0086,-0.0094,-0.0105,-0.0111,-0.0126,-0.0142,-0.0153,-0.0159,-0.0172,-0.0177,-0.0192,-0.0179,-0.0177,-0.0175,-0.0171,-0.0184,-0.0182,-0.0197,-0.0197,-0.0197,0,0,-0.0052,-0.0057,-0.0054,-0.006,-0.0068,-0.0068,-0.0085,-0.0087,-0.0088,-0.0113,-0.012,-0.0137,-0.0154,-0.016,-0.0165,-0.0169,-0.0181,-0.0175,-0.0173,-0.017,-0.0184,-0.0182,-0.0181,-0.0197,-0.0197,-0.0197,0,0,-0.0032,-0.0037,-0.0031,-0.0037,-0.0049,-0.0057,-0.0058,-0.0072,-0.0079,-0.0089,-0.0106,-0.0119,-0.014,-0.0147,-0.0155,-0.015,-0.0171,-0.0157,-0.0138,-0.015,-0.0149,-0.0148,-0.0173,-0.0174,-0.0154,-0.0154,-0.0154,0,-0.0021,-0.0017,-0.0029,-0.0027,-0.0029,-0.0051,-0.0045,-0.0054,-0.0071,-0.0074,-0.0088,-0.0115,-0.0131,-0.0134,-0.0134,-0.0145,-0.0161,-0.0144,-0.0147,-0.0146,-0.0146,-0.0171,-0.0173,-0.0152,-0.0153,-0.0153,-0.0153,0,-0.0002,0.0,0.0005,-0.0001,-0.0003,-0.0001,-0.0016,-0.0021,-0.0036,-0.0048,-0.0059,-0.0083,-0.0098,-0.0106,-0.012,-0.0122,-0.0139,-0.0144,-0.0151,-0.0142,-0.017,-0.0173,-0.015,-0.0151,-0.0151,-0.0152,0,0,0.0027,0.002,0.0021,0.0023,0.001,0.0013,0.0013,0.0008,0.0011,-0.0014,-0.0013,-0.0039,-0.0056,-0.0066,-0.0085,-0.0097,-0.0113,-0.0117,-0.0119,-0.0138,-0.0152,-0.0156,-0.0159,-0.0119,-0.0119,-0.0119,-0.0176,0,0.0044,0.0055,0.0047,0.0059,0.0063,0.0048,0.0053,0.0045,0.0032,0.0027,0.0,-0.0009,-0.0039,-0.0045,-0.0063,-0.0098,-0.0117,-0.0098,-0.0161,-0.0163,-0.0163,-0.0161,-0.0119,-0.0178,-0.0178,-0.0179,-0.0179,0,0.0061,0.0067,0.0081,0.0089,0.009,0.0095,0.0101,0.0101,0.0088,0.0076,0.0059,0.0036,0.0012,-0.0013,-0.0072,-0.006,-0.0104,-0.0134,-0.0137,-0.0151,-0.017,-0.0187,-0.0184,-0.0184,-0.0183,-0.0183,-0.0183,0,0.0081,0.0091,0.0104,0.0105,0.011,0.0118,0.0121,0.0115,0.0125,0.0108,0.011,0.0072,0.0057,0.0001,-0.0069,-0.0072,-0.0136,-0.0147,-0.0195,-0.0196,-0.0189,-0.019,-0.0188,-0.0188,-0.0188,-0.0188,-0.0188,0,0.0098,0.011,0.0116,0.0123,0.0148,0.0141,0.0163,0.016,0.0163,0.018,0.0137,0.0141,0.0062,0.0016,-0.0056,-0.0134,-0.013,-0.0191,-0.0207,-0.0177,-0.0176,-0.0192,-0.0192,-0.019,-0.019,-0.0189,-0.0189,0,0.0112,0.0114,0.0134,0.0148,0.0156,0.0172,0.0196,0.0214,0.0207,0.0229,0.0227,0.0193,0.0131,0.0045,-0.0047,-0.011,-0.0188,-0.0217,-0.0186,-0.0199,-0.0246,-0.0244,-0.0277,-0.0277,-0.0278,-0.0278,-0.0278,0,0.0119,0.0129,0.0154,0.0173,0.018,0.0203,0.0225,0.0233,0.0254,0.0264,0.0279,0.0234,0.0197,0.0068,-0.0034,-0.0176,-0.0196,-0.0246,-0.0242,-0.0241,-0.0253,-0.025,-0.0247,-0.0279,-0.0279,-0.0279,-0.0279,0,0.0134,0.0141,0.0159,0.0195,0.0222,0.0256,0.0286,0.0309,0.0323,0.0322,0.0331,0.0266,0.0197,0.0086,-0.0027,-0.0129,-0.0219,-0.0251,-0.0251,-0.0248,-0.0244,-0.0255,-0.0252,-0.0281,-0.0281,-0.028,-0.028,0,0.0146,0.016,0.0184,0.0217,0.0256,0.0298,0.0312,0.0342,0.0363,0.0375,0.0379,0.0302,0.0258,0.011,0.0008,-0.0095,-0.0124,-0.0163,-0.0168,-0.0168,-0.0121,-0.01,-0.0103,0,0,0,0,0,0.0155,0.0172,0.0205,0.0243,0.0284,0.0307,0.0351,0.0363,0.0382,0.0399,0.0392,0.0329,0.0192,0.0133,0.0032,-0.0019,-0.0158,-0.0144,-0.0208,-0.0289,-0.0287,-0.0252,0,0,0,0,0,0,0.0161,0.0189,0.0204,0.0259,0.029,0.0337,0.0368,0.0383,0.0391,0.0398,0.0332,0.0296,0.0164,0.0254,0.003,-0.0003,-0.006,-0.021,-0.0212,-0.029,-0.0288,-0.0287,-0.025,0,0,0,0,0]}]]